Regional Weather Roundup
Issued by NWS Wakefield, VA

Home | Current Version | Previous Version | Text Only | Print | Product List | Glossary Off
Versions: 1 2 3 4 5 6 7 8 9 10 11 12 13 14 15 16 17 18 19 20 21 22 23 24 25 26 27 28 29 30 31 32 33 34 35 36 37 38 39 40 41 42 43 44 45 46 47 48 49 50

000
ASUS41 KAKQ 171210
RWRAKQ

REGIONAL WEATHER ROUNDUP
NATIONAL WEATHER SERVICE WAKEFIELD VA
700 AM EST WED DEC 17 2014

Note: "fair" indicates few or no clouds below 12,000 feet with no
significant weather and/or obstructions to visibility. * = Denotes
station may not report precipitation (e.g., rain,snow,etc.),
thunder or fog.

VAZ042-051-052>054-056-171300-
NORTHERN VIRGINIA

CITY           SKY/WX    TMP DP  RH WIND       PRES   REMARKS
WASH NATIONAL  PTCLDY    42  37  82 SW7       29.97R
DULLES         CLEAR     35  33  92 CALM      29.97R
FORT BELVOIR   FOG       37  36  93 VRB1      29.98R VSB 1/4
QUANTICO       FOG       40  38  93 W5        30.00R VSB 3/4
FREDERICKSBRG* FOG       40  40 100 CALM      29.98R VSB 1/4
STAFFORD*      FOG       38  38 100 CALM      30.02R VSB 1/4
WARRENTON      FOG       37  37 100 CALM      29.98R VSB 1/4
CULPEPER*      FOG       36  36 100 CALM      29.99R VSB 3/4
MANASSAS*      FOG       36  36 100 CALM      29.98R VSB 1
LEESBURG*      PTCLDY    46  41  81 MISG      29.97R
WINCHESTER     MOCLDY    45  32  61 NW5       29.96R
FRONT ROYAL*   PTSUNNY   41  36  81 SW5       29.95R
LURAY*         CLOUDY    48  36  61 S7        29.96S
$$

VAZ048-049-060>072-079>083-171300-
CENTRAL AND SOUTH CENTRAL VIRGINIA

CITY           SKY/WX    TMP DP  RH WIND       PRES   REMARKS
RICHMOND       PTCLDY    43  38  82 W7        30.00R
CHESTERFIELD*  SUNNY     39  28  65 W6        30.01R
PETERSBURG*    CLEAR     39  38  97 W3        30.01R
HANOVER        FOG       33  33 100 CALM      30.01R VSB 1/2
TAPPAHANNOCK*  FOG       42  40  92 CALM      30.00R VSB<1/4
QUINTON*       PTSUNNY   33  33 100 SW5       30.00R VSB 1/2
CHARLOTTSVILLE CLOUDY    45  35  68 SW6       29.98R
GORDONSVILLE*  CLOUDY    32  32 100 CALM      29.98R
ORANGE*        CLOUDY    34  32  93 S3        29.99R
LOUISA*        MOCLDY    39  37  93 SW3       29.97R
BUMPASS*       SUNNY     36  35  99 SW3       29.98R
FARMVILLE*     CLEAR     46  39  77 W6        30.01R
CREWE*         SUNNY     43  38  82 W3        30.01R
FORT PICKETT*  SUNNY     35  34  98 SW6       30.02R
CHASE CITY*    SUNNY     37  37 100 CALM      30.03S
CLARKSVILLE*   SUNNY     43  36  75 W6        30.04R
SOUTH HILL*    CLEAR     41  37  86 W6        30.09R
LAWRENCEVILLE* SUNNY     40  38  95 W3        30.03R
EMPORIA*       CLEAR     41  37  87 W6        30.05R
$$

VAZ088>098-171300-
SOUTHEAST VIRGINIA

CITY           SKY/WX    TMP DP  RH WIND       PRES   REMARKS
NORFOLK        HAZE      39  38  96 W3        30.00R VSB 1/2
VIRGINIA BEACH FOG       45  44  97 SW3       30.00R VSB 1/2
NORFOLK NAVAL  PTCLDY    44  40  85 SW3       30.02R FOG
WEST POINT*    CLOUDY    42  40  94 CALM      30.02R VSB 1/4
SALUDA*        CLOUDY    44  42  95 CALM      29.98R
NEWPORT NEWS   CLEAR     45  41  86 W3        30.00R FOG
LANGLEY AFB    FOG       37  37 100 SW2       30.01R VSB<1/4
FORT EUSTIS    CLEAR     41 N/A N/A W2        29.99R FOG
WILLIAMSBURG*    N/A     39  39 100 CALM      30.01R
HR EXEC AP*    PTSUNNY   32  30  93 CALM      30.03R VSB 1/2
FRANKLIN*      CLEAR     37 N/A N/A CALM      30.02R
WAKEFIELD      CLEAR     40  37  89 CALM      30.01R
$$

VAZ020-022-025-037-045-171300-
WEST CENTRAL AND SOUTHWEST VIRGINIA

CITY           SKY/WX    TMP DP  RH WIND       PRES   REMARKS
STAUNTON*      PTCLDY    39  33  79 CALM      29.99R
WAYNESBORO*    PTSUNNY   44  34  68 W5        29.98R
HOT SPRINGS VA CLOUDY    34  34 100 W21G30    29.91R WCI  22
LYNCHBURG      MOCLDY    45  37  73 SW6       30.03R
DANVILLE       CLEAR     42  35  76 W8        30.07R
SOUTH BOSTON*  SUNNY     39  36  89 SW8       30.05R
MARTINSVILLE   CLOUDY    34  34 100 CALM      30.10R
ROANOKE        MOCLDY    46  33  60 W12G21    30.05R
BLACKSBURG     CLOUDY    39  33  79 W14G23    30.06R
DUBLIN*        CLOUDY    42  37  80 W14       30.07R
MARION*        CLOUDY    40  36  85 W16G24    30.09R
HILLSVILLE*    CLOUDY    39  35  85 NW15G22   30.05R
RICHLANDS*     CLOUDY    37  33  85 NW7       30.11R
WISE*          CLOUDY    36  36 100 W3        30.12S
ABINGDON*      CLOUDY    41  37  84 W7        30.14R
$$

MDZ021>025-VAZ099-100-171300-
SOUTHERN MARYLAND AND THE DELMARVA PENINSULA

CITY           SKY/WX    TMP DP  RH WIND       PRES   REMARKS
PATUXENT RIVER FOG       35  34  96 W6        29.97R VSB 1/2
BAY BRIDGE APT   N/A     41  39  93 W6        29.95R
LEONARDTOWN    CLOUDY    41  37  87 W6        29.98R VSB 1/2
DOVER          PTCLDY    41  41 100 W6        29.90R
GEORGETOWN     CLEAR     42  39  89 W5        29.93R FOG
EASTON         CLEAR     41  41 100 W5        29.98R FOG
CAMBRIDGE      CLEAR     43  39  87 W5        29.95R
SALISBURY      CLEAR     44  40  85 W7        29.94R
OCEAN CITY     CLEAR     42  40  92 NW5       29.93R
WALLOPS ISLAND CLEAR     42  41  96 NW7       29.96R FOG
ACCOMACK*      FOG       41  39  93 W3        29.97R VSB 3/4
$$

NCZ012>017-030>032-171300-
NORTH CENTRAL AND EASTERN NORTH CAROLINA

CITY           SKY/WX    TMP DP  RH WIND       PRES   REMARKS
ROANOKE RAPIDS SUNNY     41  37  87 W7        30.04R
RALEIGH        CLEAR     40  34  79 SW5       30.07R
ELIZABETH CITY CLEAR     43  39  86 W5        30.02R FOG
AHOSKIE*       CLEAR     38  37  98 CALM      30.04R
EDENTON*         N/A     44  41  91 W7        30.03R
CURRITUCK*     FOG       44  42  95 CALM      30.02R VSB 1/4
KILL DEVIL HLS PTCLDY    46  45  99 W5        30.00R FOG
MANTEO         CLEAR     45  45  99 W3        30.02R
CAPE HATTERAS  CLEAR     47  46  97 NW8       30.03R
TARBORO*       SUNNY     35  34  98 W3        30.05R
GOLDSBORO      CLEAR     39  39  99 CALM      30.05R
WASHINGTON     CLEAR     42  40  90 CALM      30.05R
GREENVILLE     CLEAR     41  39  93 CALM      30.06R
NEW BERN       CLEAR     46  41  82 NW5       30.06R
WILMINGTON     CLEAR     44  43  96 W3        30.08R
$$

VAZ048-171300-
ELSEWHERE

CITY           SKY/WX    TMP DP  RH WIND       PRES   REMARKS
HARRISBURG PA  CLOUDY    41  39  93 E3        29.90S FOG
BALTIMORE      PTCLDY    38  36  92 SW5       29.93R
ANNAPOLIS      CLEAR     39  36  89 CALM      29.95R
ANDREWS AFB    CLEAR     39  38  95 W7        29.95R
PHILADELPHIA   PTCLDY    41  38  89 W7        29.91R FOG
HENDERSON NC   CLEAR     43  35  74 W3        30.04R
GREENSBORO     PTCLDY    39  34  82 NW8       30.07R
ROCKY MOUNT    CLEAR     43  38  82 W3        30.05R
$$

VAZ100-171300-
MARINE

STATION/POSITION TIME  TEMP    WIND        PRES    WAVE   SWELL
                       AIR SEA DIR/SP/G            HT/PER HT/PER
                 (UTC) (F)     (DEG/KT/KT) (MB)    (FT/S) (FT/S)
CAPE MAY NJ      1200   43 45  290/  5/  9 1012.4R
LEWES DE         1200   44 44  290/ 11/ 12 1012.9R
15NM E FENWICK I 1200   46 47              1012.8R   2/ 6
OCEAN-CITY-INLET 1200   44 46  310/  8/ 10 1013.1S
WACHAPREAGUE VA  1200   43 45  280/  2/  3 1014.7R
THOMAS POINT MD  1200   43 43  260/  5/  5 1015.5R
GOOSES REEF MD   1200   44     VRB  8/ 12  1013.4R
COVE POINT MD    1200   42     310/  5/  8 1014.4R
SOLOMONS ISLAND  1200      44                N/A
BISHOPS HEAD MD  1200   44 43  290/  7/  7 1013.8R
PINEY POINT MD   1200          310/  7/  8   N/A
POTOMAC MD       1200   43     310/ 12/ 12 1013.9R
CAMBRIDGE MD     1200   43 41  250/  5/  6 1014.0R
LEWISETTA VA     1200   43 44  300/  4/  5 1014.9R
RAPPAHANNOCK LGT 1200          280/  9/ 10 1015.5R
STINGRAY PT      1200   44     300/ 10/ 12 1015.8R
YORK RVR RNG VA  1200   44     300/  5/  6 1015.0R
YORKTOWN VA      1200   43 46  290/  5/  6 1015.3R
JAMESTOWN VA     1200   41     270/  2/  4   N/A
DOMINION TERM VA 1200   45     290/  8/  9 1015.8R
KIPTOPEKE VA     1200      50  280/  7/  8   N/A
CHES BAY BRIDGE  1200   45 47  250/  7/  8 1015.1R
CAPE HENRY VA    1200   45     260/  5/  8 1014.4R
CHESAPEAKE LGHT  1100   47     320/ 11/ 12 1014.5R
WILLOUBY STN VA  1200   45     270/  4/  4 1016.1R
S CRANEY ISL VA  1200          250/  2/  2 1015.8R
CAPE HENRY BUOY  1200      48                N/A     2/ 7
1ST LANDING BUOY 1200   46     290/  8/ 10 1015.0R
CAPE CHARLES BUO 1200      48                N/A     2/ 9   2/ 9
64NM E OF VA BCH 1200   50 54  310/ 14/ 16 1014.5R   4/ 7   2/ 7
DUCK PIER NC     1200   46 48  260/  5/  7 1015.1R
44100 DUCK FRF   1200      51                N/A     2/ 7
44056 DUCK FRF   1200      48                N/A     2/ 7
OREGON INLET NC  1200   47 51  280/  5/  6 1016.2R
HATTERAS NC      1200   50 54  300/ 13/ 14 1016.9R
DIAMOND SHLS NC  1200   54                 1016.0R   5/ 7
CAPE LOOKOUT NC  1100   52     310/ 12/ 16 1016.6R
$$



USA.gov is the U.S. government's official web portal to all federal, state and local government web resources and services.